Terug naar catalogus

GORIZONT 32

ActiefCommunicatieGEO
NORAD 23880·PAYLOAD·🇷🇺 Russia

Gelanceerd May 25, 1996 vanaf Baikonur Cosmodrome

Loading…

TLE

VersSource: Space-Track

Epoch: Sep 13, 2026, 16:09 UTC

1 23880U 96034A   26256.67326091 -.00000379  00000-0  00000-0 0  9998
2 23880  14.3786 354.3002 0008340 358.5293   7.2504  1.00180895110922

Volg GORIZONT 32 in realtime met AllMySat

Download on the App Store